#timestamp,LO_Frequency,Hit,StdDev 
1571022015.4,286047003.5,N
1571022035.2,286047004.1,N
1571022055.1,286047002.2,N
1571022056.0,286047002.2,N
1571022075.8,286047003.9,N
1571022095.7,286047003.1,N
1571022115.5,286047002.7,N
1571022135.3,286047001.0,N
1571022155.2,286046999.4,N
1571022175.0,286046998.2,N
1571022175.9,286046998.2,N
1571022195.8,286047002.4,N
1571022215.6,286047000.1,N
1571022235.4,286047002.6,N
1571022255.3,286047003.1,N
1571022275.1,286047005.7,N
1571022295.8,286047002.9,N
1571022315.7,286047004.8,N
1571022335.5,286047005.2,N
1571022355.4,286047007.1,Y
1571022375.2,286047004.1,P
1571022395.0,286047004.0,P
1571022395.9,286047004.0,P
1571022415.8,286047004.1,Y
1571022435.6,286047002.8,P
1571022455.5,286047000.7,N
1571022475.3,286046998.5,N
1571022495.1,286046999.6,N
1571022515.9,286046997.1,N
1571022535.7,286046997.3,N
1571022555.6,286046999.3,N
1571022575.4,286046998.4,N
1571022595.2,286047000.1,N
1571022615.1,286047002.0,N
1571022616.0,286047002.0,N
1571022635.8,286046999.9,N
1571022655.7,286047002.4,N
1571022675.5,286047000.2,N
1571022695.3,286047002.6,N
1571022715.2,286047002.1,N
1571022735.0,286047002.3,N
1571022735.9,286047002.3,N
1571022755.8,286047002.3,N
1571022775.6,286047002.5,N
1571022795.4,286047002.2,N
1571022815.3,286047002.2,N
1571022835.1,286047000.3,N
1571022855.8,286046999.8,N
1571022875.7,286047002.7,N
1571022895.5,286047001.0,N
1571022915.4,286047000.8,N
1571022935.2,286047000.6,N
1571022955.0,286047000.0,N
1571022955.9,286047000.0,N
1571022975.8,286047001.2,N
1571022995.6,286046998.8,N
1571023015.5,286046996.9,N
1571023035.3,286046999.5,N
1571023055.1,286046997.1,N
1571023075.9,286046997.3,N
1571023095.7,286046997.2,N
1571023115.5,286046997.8,N
1571023135.4,286046997.8,N
1571023155.2,286046999.5,N
1571023175.1,286046997.9,N
1571023176.0,286046997.9,N
1571023195.8,286046995.6,N
1571023215.6,286046995.2,N
1571023235.5,286046995.2,N
1571023255.3,286046993.5,N
1571023275.2,286046996.2,N
1571023295.9,286046995.7,N
1571023315.7,286046993.8,N
1571023335.6,286046993.5,N
1571023355.4,286046996.2,N
1571023375.2,286046993.6,N
1571023395.1,286046996.1,N
1571023396.0,286046996.1,N
1571023415.8,286046993.3,N
1571023435.7,286046993.6,N
1571023455.5,286046994.0,N
1571023475.3,286046993.6,N
1571023495.2,286046992.6,Y
1571023515.0,286046995.5,P
1571023515.9,286046995.5,P
1571023535.8,286046995.0,P
1571023555.6,286046996.4,Y
1571023575.4,286046997.4,P
1571023595.3,286046995.8,P
1571023615.1,286046995.0,P
1571023635.9,286046998.0,N
1571023655.7,286046995.5,Y
1571023675.5,286046998.1,P
1571023695.4,286046999.3,N
1571023715.2,286046999.0,N
1571023735.0,286046998.8,N
1571023736.0,286046998.8,N
1571023755.8,286046999.3,N
1571023775.6,286047000.6,N
1571023795.5,286047001.8,N
1571023815.3,286047004.4,Y
1571023835.1,286047003.1,P
1571023855.9,286047005.3,N
1571023875.7,286047007.3,N
1571023895.6,286047004.8,N
1571023915.4,286047007.5,N
1571023935.2,286047007.3,N
1571023955.1,286047007.5,N
1571023956.0,286047007.5,N
1571023975.8,286047007.0,N
1571023995.6,286047006.7,N
1571024015.5,286047007.3,N
1571024035.3,286047006.9,N
1571024055.2,286047007.5,Y
1571024075.9,286047000.6,P
1571024095.7,286046996.6,N
1571024115.6,286046996.5,N
1571024135.4,286046998.9,N
1571024155.2,286046998.1,N
1571024175.1,286047000.3,N
1571024176.0,286047000.3,N
1571024195.8,286046999.7,N
1571024215.7,286047000.6,N
1571024235.5,286046998.7,N
1571024255.3,286046998.5,N
1571024275.2,286046997.9,N
1571024295.0,286046995.8,N
1571024295.9,286046995.8,N
1571024315.8,286046999.1,N
1571024335.6,286046999.6,N
1571024355.4,286046997.2,N
1571024375.3,286046999.5,N
1571024395.1,286046999.2,N
1571024415.8,286046996.8,N
1571024435.7,286046997.4,N
1571024455.5,286046997.8,N
1571024475.4,286046997.2,N
1571024495.2,286046999.1,N
1571024515.0,286046998.0,N
1571024515.9,286046998.0,N
1571024535.8,286046995.9,N
1571024555.6,286046997.7,N
1571024575.5,286046997.1,N
1571024595.3,286047002.6,N
1571024615.1,286047001.8,N
1571024635.9,286047001.9,N
1571024655.7,286047004.3,N
1571024675.5,286046998.2,N
1571024695.4,286046998.1,N
1571024715.2,286047000.5,N
1571024735.1,286047002.6,N
1571024736.0,286047002.6,N
1571024755.8,286047001.1,N
1571024775.6,286047000.7,N
1571024795.5,286047000.9,N
1571024815.3,286047001.9,N
1571024835.1,286047002.2,N
1571024855.9,286047001.2,N
1571024875.7,286046999.9,N
1571024895.6,286047000.7,N
1571024915.4,286047002.8,N
1571024935.2,286047000.8,N
1571024955.1,286046998.2,N
1571024956.0,286046998.2,N
1571024975.8,286046998.2,N
1571024995.7,286046999.3,N
1571025015.5,286046998.6,N
1571025035.3,286047000.7,N
1571025055.2,286047002.3,N
1571025075.0,286047000.6,N
1571025075.9,286047000.6,N
1571025095.7,286047001.2,N
1571025115.6,286047002.7,N
1571025135.4,286047005.8,Y
1571025155.3,286047001.5,P
1571025175.1,286047002.6,P
1571025195.8,286047004.1,P
1571025215.7,286047000.2,N
1571025235.5,286047002.6,N
1571025255.4,286047000.4,N
1571025275.2,286047000.5,N
1571025295.0,286047002.7,N
1571025326.0,286047004.2,E
1571025335.9,286047001.9,N
1571025355.7,286046999.0,P
1571025375.6,286046999.4,N
1571025395.4,286046999.2,N
1571025415.2,286046996.9,N
1571025435.1,286047002.4,N
1571025436.0,286047002.4,N
1571025455.8,286047001.2,N
1571025475.7,286046996.7,N
1571025495.5,286046995.2,N
1571025515.3,286046996.2,N
1571025535.2,286046995.0,N
1571025555.0,286046997.5,N
1571025555.9,286046997.5,N
1571025575.8,286046996.0,N
1571025595.6,286046995.5,N
